TimeCST,TemperatureF,Dew PointF,Humidity,Sea Level PressureIn,VisibilityMPH,Wind Direction,Wind SpeedMPH,Gust SpeedMPH,PrecipitationIn,Events,Conditions,WindDirDegrees,DateUTC
12:52 AM,34.0,27.0,75,29.86,10.0,NW,25.3,34.5,N/A,,Clear,310,2014-01-18 06:52:00
1:52 AM,34.0,27.0,75,29.89,10.0,NNW,25.3,33.4,N/A,,Clear,330,2014-01-18 07:52:00
2:52 AM,36.0,27.0,70,29.93,10.0,NNW,27.6,35.7,N/A,,Mostly Cloudy,330,2014-01-18 08:52:00
3:52 AM,36.0,27.0,70,29.97,10.0,NNW,21.9,34.5,N/A,,Overcast,340,2014-01-18 09:52:00
4:52 AM,34.0,27.0,75,30.01,10.0,NW,17.3,25.3,N/A,,Overcast,320,2014-01-18 10:52:00
5:52 AM,33.1,26.1,75,30.04,10.0,NNW,25.3,31.1,N/A,,Mostly Cloudy,330,2014-01-18 11:52:00
6:52 AM,30.9,24.1,76,30.07,10.0,NNW,13.8,23.0,N/A,,Clear,330,2014-01-18 12:52:00
7:50 AM,30.2,23.0,75,30.04,10.0,West,8.1,-,N/A,,Mostly Cloudy,270,2014-01-18 13:50:00
7:52 AM,30.0,23.0,75,30.11,10.0,West,8.1,-,N/A,,Mostly Cloudy,270,2014-01-18 13:52:00
8:04 AM,30.0,23.0,75,30.05,10.0,West,8.1,-,N/A,,Overcast,270,2014-01-18 14:04:00
8:16 AM,30.0,23.0,75,30.06,10.0,WNW,9.2,-,N/A,,Overcast,290,2014-01-18 14:16:00
8:52 AM,30.0,24.1,79,30.13,10.0,WNW,12.7,-,N/A,,Overcast,300,2014-01-18 14:52:00
9:49 AM,28.4,23.0,80,30.06,10.0,West,8.1,-,N/A,,Scattered Clouds,280,2014-01-18 15:49:00
9:52 AM,28.9,23.0,78,30.14,10.0,West,8.1,-,N/A,,Scattered Clouds,280,2014-01-18 15:52:00
10:52 AM,28.9,23.0,78,30.14,10.0,West,6.9,-,N/A,,Clear,260,2014-01-18 16:52:00
11:52 AM,32.0,24.1,73,30.12,10.0,WSW,12.7,-,N/A,,Clear,240,2014-01-18 17:52:00
12:52 PM,34.0,25.0,70,30.09,10.0,West,16.1,-,N/A,,Clear,260,2014-01-18 18:52:00
1:52 PM,36.0,26.1,67,30.03,10.0,West,18.4,-,N/A,,Clear,260,2014-01-18 19:52:00
2:52 PM,37.9,27.0,65,29.99,10.0,WSW,12.7,-,N/A,,Clear,240,2014-01-18 20:52:00
3:52 PM,39.0,28.0,65,29.95,10.0,SW,8.1,-,N/A,,Clear,230,2014-01-18 21:52:00
4:52 PM,39.0,28.0,65,29.91,10.0,SW,12.7,-,N/A,,Clear,220,2014-01-18 22:52:00
5:52 PM,35.1,28.0,76,29.90,10.0,SSW,9.2,-,N/A,,Clear,210,2014-01-18 23:52:00
6:52 PM,34.0,27.0,75,29.86,10.0,SW,9.2,-,N/A,,Clear,230,2014-01-19 00:52:00
7:52 PM,34.0,28.0,79,29.83,10.0,SW,11.5,-,N/A,,Clear,230,2014-01-19 01:52:00
8:52 PM,33.1,28.0,82,29.81,10.0,SSW,13.8,-,N/A,,Clear,210,2014-01-19 02:52:00
9:52 PM,34.0,27.0,75,29.77,10.0,SW,11.5,-,N/A,,Clear,220,2014-01-19 03:52:00
10:52 PM,35.1,27.0,72,29.75,10.0,WSW,11.5,-,N/A,,Clear,240,2014-01-19 04:52:00
11:52 PM,35.1,27.0,72,29.73,10.0,SW,6.9,-,N/A,,Clear,220,2014-01-19 05:52:00